Regional Weather Roundup
Issued by NWS

Home | Current Version | Previous Version | Text Only | Print | Product List | Glossary Off
Versions: 1 2 3 4 5 6 7 8 9 10 11 12 13 14 15 16 17 18 19 20 21 22 23 24 25 26 27 28 29 30 31 32 33 34 35 36 37 38 39 40 41 42 43 44 45 46 47 48 49 50

000
ASUS45 KPSR 291010
RWRAZ

ARIZONA HOURLY REGIONAL WEATHER ROUNDUP
NATIONAL WEATHER SERVICE PHOENIX AZ
300 AM MST WED JUL 29 2015

NOTE: FAIR INDICATES FEW OR NO CLOUDS BELOW 12,000 FEET WITH NO
SIGNIFICANT WEATHER AND/OR OBSTRUCTIONS TO VISIBILITY.

AZZ001>003-036-291100-
NORTHWEST ARIZONA

CITY           SKY/WX    TMP DP  RH WIND       PRES   REMARKS
BULLHEAD CITY  MOCLDY    90  46  22 CALM      29.82S
KINGMAN        PTCLDY    76  39  26 CALM      30.04F
$$

AZZ004>008-015-016-018-291100-
NORTH CENTRAL ARIZONA

CITY           SKY/WX    TMP DP  RH WIND       PRES   REMARKS
GRAND CANYON   MOCLDY    49  26  41 CALM      30.29S
WILLIAMS       MOCLDY    59  28  31 S8        30.37S
PRESCOTT       CLOUDY    72  57  59 SE7       30.18F
FLAGSTAFF      PTCLDY    59  49  69 SW7       30.32F
PAYSON         MOCLDY    70  54  56 NE5       30.22S
PAGE           PTCLDY    76  30  18 W3        30.09R
$$

AZZ009>014-017-291100-
NORTHEAST ARIZONA

CITY           SKY/WX    TMP DP  RH WIND       PRES   REMARKS
WINSLOW        PTCLDY    74  52  46 CALM      30.15R
SAINT JOHNS    LGT RAIN  68  53  58 CALM      30.23R
WINDOW ROCK    MOCLDY    65  46  50 E3        30.29S
SHOW LOW       CLOUDY    64  48  55 S8        30.29S
$$

AZZ023-291100-
GREATER PHOENIX AREA

CITY           SKY/WX    TMP DP  RH WIND       PRES   REMARKS
PHOENIX        CLOUDY    88  61  40 SE8       29.91R
LUKE AFB       MOCLDY    90  64  43 S5        29.90R
DEER VALLEY    CLOUDY    86  60  41 SE6       29.93S
SCOTTSDALE     MOCLDY    86  59  39 CALM      29.95R
MESA-GATEWAY   MOCLDY    81  63  54 SE3       29.96R
$$

AZZ027-028-291100-
SOUTHWEST MARICOPA COUNTY AND PINAL COUNTY

CITY           SKY/WX    TMP DP  RH WIND       PRES   REMARKS
CASA GRANDE    CLOUDY    82  63  51 NE7       29.93F
GILA BEND      CLOUDY    87  64  46 SE16G22   29.89R HAZE
$$

AZZ503-504-507>509-291100-
SOUTHEAST ARIZONA

CITY           SKY/WX    TMP DP  RH WIND       PRES   REMARKS
TUCSON         CLOUDY    76  66  71 CALM      30.03S
DAVIS-MONTHAN  CLOUDY    75  65  69 SE6       30.01S
NOGALES        CLOUDY    68  64  87 NE5       30.10S
SIERRA VISTA   CLOUDY    68  58  69 S6        30.18S
DOUGLAS          N/A    N/A N/A N/A MISG      30.14S
SAFFORD        CLOUDY    79  59  50 S3        30.02R
$$

AZZ020-021-025-026-031-291100-
SOUTHWEST ARIZONA

CITY           SKY/WX    TMP DP  RH WIND       PRES   REMARKS
YUMA           MOCLDY    90  68  48 S6        29.82F
$$

CAZ031-033-041-043-047-048-061-291100-
SOUTHERN CALIFORNIA

CITY           SKY/WX    TMP DP  RH WIND       PRES   REMARKS
DOWNTOWN L.A.  PTCLDY    66  62  87 CALM      29.89F
L.A. AIRPORT   CLOUDY    66  63  90 NW5       29.90F
SAN DIEGO      MOCLDY    70  61  73 W5        29.92S
BURBANK        CLEAR     68  62  81 CALM      29.91S
ONTARIO        CLEAR     67  61  81 W3        29.91F
RIVERSIDE      CLEAR     69  62  78 VRB3      29.91F
PALM SPRINGS   CLEAR     86  58  38 VRB3      29.84S
EL CENTRO NAS  CLEAR     87  72  60 SE12      29.80R
IMPERIAL       LGT RAIN  87  74  64 SE15      29.78R
BLYTHE         PTCLDY    91  65  41 S12       29.83S
NEEDLES        MOCLDY    93  42  17 SW5       29.84R
$$

NVZ020-UTZ003-291100-
SOUTHERN NEVADA-UTAH

CITY           SKY/WX    TMP DP  RH WIND       PRES   REMARKS
LAS VEGAS      PTCLDY    84  30  14 SW8       29.88S
SALT LAKE CITY CLEAR     58  36  43 SE6       30.25S
$$

NMZ009-TXZ055-291100-
NEW MEXICO-WEST TEXAS

CITY           SKY/WX    TMP DP  RH WIND       PRES   REMARKS
ALBUQUERQUE    MOCLDY    73  52  47 E9        30.23S
EL PASO        CLOUDY    74  62  66 CALM      30.14R
$$


........................KEY........................
SKY/WX - SKY CONDITION/WEATHER
TMP    - TEMPERATURE IN FAHRENHEIT
DP     - DEW POINT IN FAHRENHEIT
RH     - RELATIVE HUMIDITY IN PERCENT
WIND   - DIRECTION AND SPEED IN MILES PER HOUR (MPH)
VRB    - VARIABLE WIND DIRECTION
PRES   - MEAN SEA LEVEL PRESSURE IN INCHES OF MERCURY
         F - FALLING PRESSURE   R - RISING PRESSURE
         S - STEADY PRESSURE
VSB    - VISIBILITY IN MILES
HX     - HEAT INDEX IN FAHRENHEIT
WCI    - WIND CHILL INDEX IN FAHRENHEIT
TC     - TEMPERATURE IN CELSIUS WHICH IS ALSO KNOWN AS
         TEMPERATURE IN CENTIGRADE
AFB    - AIR FORCE BASE
         LUKE AFB IS LUKE AIR FORCE BASE
         DAVIS-MONTHAN IS DAVIS-MONTHAN AIR FORCE BASE
NAS    - NAVAL AIR STATION
         EL CENTRO NAS IS EL CENTRO NAVAL AIR STATION
N/A    - NOT AVAILABLE



USA.gov is the U.S. government's official web portal to all federal, state and local government web resources and services.